Welcome to the New NWS' Forecast!
Most changes are behind the scenes, but click here for differences you might notice.

Regional Weather Roundup (RWR)

Issued by National Weather Service (NWS)

                            
000
ASUS46 KSEW 182110
RWRWA 

WASHINGTON REGIONAL WEATHER ROUNDUP
NATIONAL WEATHER SERVICE SEATTLE WA
200 PM PDT TUE SEP 18 2018

NOTE:"FAIR" INDICATES FEW OR NO CLOUDS BELOW 12,000 FEET WITH NO 
SIGNIFICANT WEATHER AND/OR OBSTRUCTIONS TO VISIBILITY.

WAZ507-509-555>559-182200-
SEATTLE, TACOMA, EVERETT, AND VICINITY
  
CITY           SKY/WX    TMP DP  RH WIND       PRES   REMARKS
EVERETT        SUNNY     61  48  62 NW6       30.12F                  
BOEING FIELD   PTSUNNY   64  45  49 NW8G20    30.11F                  
RENTON         SUNNY     63  49  60 VRB5      30.10F                  
SEATAC AIRPORT MOSUNNY   64  48  56 NW9       30.11F                  
JBLM-MCCHORD   NOT AVBL                                               
PUYALLUP       FAIR      64  50  59 VRB5      30.11S                  
BREMERTON      SUNNY     64  47  53 E6        30.11F                  
JBLM-FT LEWIS  NOT AVBL                                               
TACOMA NARROWS MOSUNNY   61  43  51 NE8       30.11F                  
$$
 
WAZ001-503-506-510-514-515-182200-
NORTH INTERIOR
  
CITY           SKY/WX    TMP DP  RH WIND       PRES   REMARKS
BELLINGHAM     SUNNY     61  49  64 W7        30.11F                  
FRIDAY HARBOR  SUNNY     64  48  56 E6        30.13F                  
EASTSOUND      SUNNY     57  52  82 NW6       30.12F                  
PORT ANGELES   SUNNY     61  44  53 VRB3      30.14S                  
EDIZ HOOK      FAIR      58  50  74 S6        30.13F                  
PORT TOWNSEND  FAIR      61  48  63 VRB6G13   30.12S                  
NAS WHIDBEY    MOSUNNY   61  49  64 W8        30.16F                  
ARLINGTON      SUNNY     63  49  60 NW8       30.11F                  
BURLINGTON     SUNNY     63  50  63 NW9       30.11F                  
$$
 
WAZ020-022-039-040-504-511-512-182200-
SOUTHWEST INTERIOR
  
CITY           SKY/WX    TMP DP  RH WIND       PRES   REMARKS
SHELTON        SUNNY     67  44  43 VRB3      30.08F                  
OLYMPIA        SUNNY     63  46  54 NE5       30.11F                  
CHEHALIS       FAIR      66  48  52 N8        30.10F                  
KELSO          SUNNY     67  47  48 N10G16    30.09F                  
VANCOUVER      SUNNY     68  47  46 W10       30.06F                  
SCAPPOOSE, OR  SUNNY     68  46  45 N6        30.05F                  
PORTLAND, OR   MOSUNNY   67  46  47 W10       30.07F                  
$$
 
WAZ021-516-517-182200-
WASHINGTON COAST
  
CITY           SKY/WX    TMP DP  RH WIND       PRES   REMARKS
FORKS          SUNNY     62  48  60 SW6       30.12F                  
HOQUIAM        SUNNY     64  47  53 SW10      30.11F                  
ASTORIA, OR    SUNNY     65  49  56 NW9       30.10F                  
$$
 
WAZ019-023-024-040-567>569-182200-
CASCADE MOUNTAINS AND COLUMBIA GORGE
  
CITY           SKY/WX    TMP DP  RH WIND       PRES   REMARKS
STAMPEDE PASS  SUNNY     56  44  64 VRB5      30.08F                  
TROUTDALE, OR  SUNNY     67  49  52 VRB6      30.06F                  
HOOD RIVER, OR CLEAR     70  43  37 W5        30.02F                  
THE DALLES, OR SUNNY     75  41  29 VRB6      29.99F                  
$$

WAZ026-027-041>044-520-521-182200-
EAST SLOPES
  
CITY           SKY/WX    TMP DP  RH WIND       PRES   REMARKS
OMAK           SUNNY     70  38  31 W7        30.02F                  
WENATCHEE      SUNNY     69  32  25 SE8       30.00F                  
ELLENSBURG     SUNNY     71  34  25 NE5       30.02F                  
YAKIMA         SUNNY     71  36  27 VRB6      30.02F                  
SUNNYSIDE ARPT CLEAR     69  42  36 CALM      30.02F                  
YAKIMA TC      NOT AVBL                                               
$$

WAZ028-034-035-182200-
COLUMBIA BASIN
  
CITY           SKY/WX    TMP DP  RH WIND       PRES   REMARKS
EPHRATA        SUNNY     71  33  24 S5        30.01F                  
MOSES LAKE     SUNNY     71  32  23 MISG      30.02F                  
PASCO          SUNNY     72  40  31 W7        30.02F                  
RICHLAND ARPT  CLEAR     73  38  27 NW3       30.01F                  
HERMISTON, OR  SUNNY     71  38  29 VRB3      30.01F                  
$$

WAZ036>038-182200-
NORTHEAST WASHINGTON
  
CITY           SKY/WX    TMP DP  RH WIND       PRES   REMARKS
SPOKANE GEIGER MOSUNNY   67  31  26 VRB5      30.02F                  
SPOKANE FELTS  SUNNY     69  32  25 VRB3      30.01F                  
FAIRCHILD AFB  NOT AVBL                                               
COEURDALENE,ID SUNNY     67  36  31 NW5       30.02F                  
DEER PARK      MOSUNNY   67  34  29 VRB5      30.02F                  
$$

WAZ029>033-182200-
SOUTHEAST WASHINGTON
  
CITY           SKY/WX    TMP DP  RH WIND       PRES   REMARKS
PULLMAN        SUNNY     66  32  28 VRB7      30.04F                  
LEWISTON, ID   SUNNY     72  35  25 CALM      30.00F                  
WALLA WALLA    SUNNY     70  34  26 W9        30.01F                  
PENDLETON, OR  SUNNY     69  35  28 E3        30.02F                  
$$